Time,TemperatureF,DewpointF,PressureIn,WindDirection,WindDirectionDegrees,WindSpeedMPH,WindSpeedGustMPH,Humidity,HourlyPrecipIn,Conditions,Clouds,dailyrainin,SoftwareType,DateUTC
2013-01-27 08:25:00,29.8,22.5,30.39,SSE,160,3.0,4.0,74,0.00,,,0.00,Wunderground v.1.15,2013-01-27 14:25:00,
2013-01-27 08:30:00,29.7,22.4,30.39,South,181,4.0,4.0,74,0.00,,,0.00,Wunderground v.1.15,2013-01-27 14:30:00,
2013-01-27 08:40:00,29.8,22.5,30.39,SSE,163,3.0,3.0,74,0.00,,,0.00,Wunderground v.1.15,2013-01-27 14:40:00,
2013-01-27 08:45:00,29.8,22.5,30.39,SSE,158,3.0,3.0,74,0.00,,,0.00,Wunderground v.1.15,2013-01-27 14:45:00,
2013-01-27 08:50:00,29.9,22.9,30.39,ESE,120,3.0,3.0,75,0.00,,,0.00,Wunderground v.1.15,2013-01-27 14:50:00,
2013-01-27 09:00:00,30.0,23.0,30.38,SSE,160,4.0,4.0,75,0.00,,,0.00,Wunderground v.1.15,2013-01-27 15:00:00,
2013-01-27 09:10:00,30.2,23.2,30.38,East,101,5.0,5.0,75,0.00,,,0.00,Wunderground v.1.15,2013-01-27 15:10:00,
2013-01-27 09:15:00,30.2,23.2,30.37,SE,146,4.0,13.0,75,0.00,,,0.00,Wunderground v.1.15,2013-01-27 15:15:00,
2013-01-27 09:25:00,30.3,23.3,30.37,SSE,158,5.0,8.0,75,0.00,,,0.00,Wunderground v.1.15,2013-01-27 15:25:00,
2013-01-27 09:35:00,30.4,23.7,30.36,SSE,150,5.0,5.0,76,0.00,,,0.00,Wunderground v.1.15,2013-01-27 15:35:00,
2013-01-27 09:45:00,30.6,23.9,30.35,SE,128,4.0,7.0,76,0.00,,,0.00,Wunderground v.1.15,2013-01-27 15:45:00,
2013-01-27 09:55:00,30.8,24.4,30.34,SE,145,4.0,7.0,77,0.00,,,0.00,Wunderground v.1.15,2013-01-27 15:55:00,
2013-01-27 10:00:00,30.9,24.5,30.33,ESE,122,4.0,4.0,77,0.00,,,0.00,Wunderground v.1.15,2013-01-27 16:00:00,
2013-01-27 10:10:00,31.1,24.7,30.33,SE,132,3.0,3.0,77,0.00,,,0.00,Wunderground v.1.15,2013-01-27 16:10:00,
2013-01-27 10:20:00,31.3,25.2,30.32,SSE,150,4.0,4.0,78,0.00,,,0.00,Wunderground v.1.15,2013-01-27 16:20:00,
2013-01-27 10:30:00,31.7,25.9,30.30,ENE,70,4.0,11.0,79,0.00,,,0.00,Wunderground v.1.15,2013-01-27 16:30:00,
2013-01-27 10:35:00,31.8,26.0,30.30,SE,135,4.0,11.0,79,0.00,,,0.00,Wunderground v.1.15,2013-01-27 16:35:00,
2013-01-27 10:45:00,31.9,26.1,30.28,SE,127,4.0,5.0,79,0.00,,,0.00,Wunderground v.1.15,2013-01-27 16:45:00,
2013-01-27 10:55:00,32.0,26.8,30.28,SE,146,3.0,7.0,81,0.00,,,0.00,Wunderground v.1.15,2013-01-27 16:55:00,
2013-01-27 11:00:00,32.2,26.7,30.28,East,97,4.0,4.0,80,0.00,,,0.00,Wunderground v.1.15,2013-01-27 17:00:00,
2013-01-27 11:10:00,32.4,26.9,30.26,NE,56,3.0,3.0,80,0.00,,,0.00,Wunderground v.1.15,2013-01-27 17:10:00,
2013-01-27 11:15:00,32.4,27.5,30.25,ESE,120,3.0,3.0,82,0.00,,,0.00,Wunderground v.1.15,2013-01-27 17:15:00,
2013-01-27 11:20:00,32.4,27.8,30.25,SSW,212,3.0,3.0,83,0.00,,,0.00,Wunderground v.1.15,2013-01-27 17:20:00,
2013-01-27 11:30:00,32.4,28.1,30.25,SE,131,4.0,10.0,84,0.00,,,0.01,Wunderground v.1.15,2013-01-27 17:30:00,
2013-01-27 11:40:00,32.4,28.4,30.24,SSE,163,3.0,5.0,85,0.00,,,0.01,Wunderground v.1.15,2013-01-27 17:40:00,
2013-01-27 11:50:00,32.6,29.2,30.24,ESE,117,3.0,6.0,87,0.00,,,0.01,Wunderground v.1.15,2013-01-27 17:50:00,
2013-01-27 12:00:00,32.6,29.7,30.24,ESE,118,4.0,5.0,89,0.00,,,0.02,Wunderground v.1.15,2013-01-27 18:00:00,
2013-01-27 12:10:00,32.6,29.7,30.24,South,169,6.0,6.0,89,0.05,,,0.03,Wunderground v.1.15,2013-01-27 18:10:00,
2013-01-27 12:15:00,32.6,30.0,30.23,SSE,158,5.0,6.0,90,0.08,,,0.04,Wunderground v.1.15,2013-01-27 18:15:00,
2013-01-27 12:20:00,32.5,30.2,30.23,SSE,150,3.0,3.0,91,0.14,,,0.05,Wunderground v.1.15,2013-01-27 18:20:00,
2013-01-27 12:30:00,32.4,30.1,30.22,SW,215,3.0,3.0,91,0.05,,,0.05,Wunderground v.1.15,2013-01-27 18:30:00,
2013-01-27 12:35:00,32.3,30.0,30.22,SE,139,3.0,6.0,91,0.04,,,0.06,Wunderground v.1.15,2013-01-27 18:35:00,
2013-01-27 12:45:00,32.3,30.2,30.20,SE,129,4.0,4.0,92,0.04,,,0.06,Wunderground v.1.15,2013-01-27 18:45:00,
2013-01-27 12:50:00,32.4,30.3,30.20,SE,139,4.0,4.0,92,0.00,,,0.06,Wunderground v.1.15,2013-01-27 18:50:00,
2013-01-27 13:00:00,32.6,30.5,30.18,ESE,113,4.0,5.0,92,0.00,,,0.06,Wunderground v.1.15,2013-01-27 19:00:00,
2013-01-27 13:10:00,32.7,30.6,30.17,ESE,113,4.0,9.0,92,0.00,,,0.06,Wunderground v.1.15,2013-01-27 19:10:00,
2013-01-27 13:20:00,33.0,30.9,30.17,SE,136,4.0,6.0,92,0.00,,,0.06,Wunderground v.1.15,2013-01-27 19:20:00,
2013-01-27 13:25:00,33.1,31.3,30.17,SE,135,4.0,6.0,93,0.00,,,0.07,Wunderground v.1.15,2013-01-27 19:25:00,
2013-01-27 13:30:00,33.1,31.3,30.16,SE,141,3.0,3.0,93,0.00,,,0.07,Wunderground v.1.15,2013-01-27 19:30:00,
2013-01-27 13:40:00,33.3,31.8,30.14,ESE,113,3.0,9.0,94,0.12,,,0.09,Wunderground v.1.15,2013-01-27 19:40:00,
2013-01-27 13:45:00,33.6,32.1,30.16,South,180,4.0,9.0,94,0.07,,,0.09,Wunderground v.1.15,2013-01-27 19:45:00,
2013-01-27 13:55:00,33.7,31.9,30.15,East,98,4.0,5.0,93,0.00,,,0.09,Wunderground v.1.15,2013-01-27 19:55:00,
2013-01-27 14:00:00,33.8,32.3,30.15,East,94,4.0,4.0,94,0.00,,,0.10,Wunderground v.1.15,2013-01-27 20:00:00,
2013-01-27 14:10:00,33.7,32.2,30.13,SSE,149,4.0,4.0,94,0.06,,,0.11,Wunderground v.1.15,2013-01-27 20:10:00,
2013-01-27 14:15:00,33.7,32.2,30.12,SSE,150,4.0,4.0,94,0.06,,,0.11,Wunderground v.1.15,2013-01-27 20:15:00,
2013-01-27 14:20:00,33.7,32.2,30.12,SE,128,5.0,5.0,94,0.05,,,0.11,Wunderground v.1.15,2013-01-27 20:20:00,
2013-01-27 14:30:00,34.1,32.6,30.12,ESE,113,5.0,5.0,94,0.00,,,0.11,Wunderground v.1.15,2013-01-27 20:30:00,
2013-01-27 14:35:00,34.1,32.6,30.12,SSE,152,6.0,6.0,94,0.00,,,0.11,Wunderground v.1.15,2013-01-27 20:35:00,
2013-01-27 14:45:00,34.3,32.8,30.12,SE,142,7.0,7.0,94,0.00,,,0.11,Wunderground v.1.15,2013-01-27 20:45:00,
2013-01-27 14:55:00,34.6,33.1,30.12,ESE,122,7.0,12.0,94,0.00,,,0.11,Wunderground v.1.15,2013-01-27 20:55:00,
2013-01-27 15:00:00,34.8,33.2,30.11,SSE,151,7.0,7.0,94,0.00,,,0.11,Wunderground v.1.15,2013-01-27 21:00:00,
2013-01-27 15:10:00,34.9,33.3,30.12,SSE,160,5.0,5.0,94,0.00,,,0.11,Wunderground v.1.15,2013-01-27 21:10:00,
2013-01-27 15:20:00,35.1,33.5,30.12,SE,134,7.0,7.0,94,0.00,,,0.11,Wunderground v.1.15,2013-01-27 21:20:00,
2013-01-27 15:25:00,35.1,33.5,30.11,SSE,158,6.0,7.0,94,0.00,,,0.11,Wunderground v.1.15,2013-01-27 21:25:00,
2013-01-27 15:30:00,35.1,33.5,30.11,SSE,150,6.0,6.0,94,0.00,,,0.11,Wunderground v.1.15,2013-01-27 21:30:00,
2013-01-27 15:40:00,35.1,33.5,30.11,SSW,198,7.0,7.0,94,0.00,,,0.11,Wunderground v.1.15,2013-01-27 21:40:00,
2013-01-27 15:50:00,35.1,33.5,30.10,SSW,195,7.0,10.0,94,0.00,,,0.11,Wunderground v.1.15,2013-01-27 21:50:00,
2013-01-27 16:00:00,35.0,33.4,30.11,SSE,156,6.0,8.0,94,0.00,,,0.11,Wunderground v.1.15,2013-01-27 22:00:00,
2013-01-27 16:10:00,35.0,33.4,30.10,SE,135,6.0,11.0,94,0.00,,,0.11,Wunderground v.1.15,2013-01-27 22:10:00,
2013-01-27 16:15:00,35.0,33.4,30.10,ESE,117,6.0,11.0,94,0.00,,,0.11,Wunderground v.1.15,2013-01-27 22:15:00,
2013-01-27 16:25:00,35.1,33.5,30.09,South,177,6.0,9.0,94,0.00,,,0.11,Wunderground v.1.15,2013-01-27 22:25:00,
2013-01-27 16:35:00,35.3,34.0,30.09,SSE,158,6.0,6.0,95,0.00,,,0.11,Wunderground v.1.15,2013-01-27 22:35:00,
2013-01-27 16:40:00,35.4,34.1,30.09,SSE,148,6.0,12.0,95,0.00,,,0.11,Wunderground v.1.15,2013-01-27 22:40:00,
2013-01-27 16:50:00,35.5,34.2,30.08,SE,138,7.0,7.0,95,0.00,,,0.11,Wunderground v.1.15,2013-01-27 22:50:00,
2013-01-27 16:55:00,35.5,34.2,30.08,East,86,5.0,17.0,95,0.00,,,0.11,Wunderground v.1.15,2013-01-27 22:55:00,
2013-01-27 17:00:00,35.5,34.2,30.08,SE,142,5.0,6.0,95,0.00,,,0.11,Wunderground v.1.15,2013-01-27 23:00:00,
2013-01-27 17:10:00,35.6,34.3,30.07,SE,145,5.0,5.0,95,0.00,,,0.11,Wunderground v.1.15,2013-01-27 23:10:00,
2013-01-27 17:15:00,35.6,34.3,30.07,SSE,164,5.0,5.0,95,0.00,,,0.11,Wunderground v.1.15,2013-01-27 23:15:00,
2013-01-27 17:25:00,35.7,34.4,30.07,SE,132,5.0,5.0,95,0.00,,,0.11,Wunderground v.1.15,2013-01-27 23:25:00,
2013-01-27 17:35:00,35.7,34.4,30.07,SSE,165,5.0,6.0,95,0.00,,,0.11,Wunderground v.1.15,2013-01-27 23:35:00,
2013-01-27 17:45:00,35.8,34.5,30.06,SSW,200,5.0,5.0,95,0.00,,,0.11,Wunderground v.1.15,2013-01-27 23:45:00,
2013-01-27 17:50:00,35.8,34.5,30.07,SE,146,4.0,4.0,95,0.00,,,0.11,Wunderground v.1.15,2013-01-27 23:50:00,
2013-01-27 18:00:00,35.9,34.9,30.06,SE,145,4.0,4.0,96,0.00,,,0.11,Wunderground v.1.15,2013-01-28 00:00:00,
2013-01-27 18:10:00,35.8,34.8,30.05,ESE,122,3.0,3.0,96,0.00,,,0.11,Wunderground v.1.15,2013-01-28 00:10:00,
2013-01-27 18:15:00,35.8,34.8,30.05,ESE,122,3.0,3.0,96,0.00,,,0.11,Wunderground v.1.15,2013-01-28 00:15:00,
2013-01-27 18:25:00,35.8,34.8,30.05,SSE,163,3.0,4.0,96,0.00,,,0.11,Wunderground v.1.15,2013-01-28 00:25:00,
2013-01-27 18:30:00,35.9,34.9,30.05,WSW,239,3.0,5.0,96,0.00,,,0.11,Wunderground v.1.15,2013-01-28 00:30:00,
2013-01-27 18:35:00,35.9,34.9,30.05,SE,137,3.0,5.0,96,0.00,,,0.11,Wunderground v.1.15,2013-01-28 00:35:00,
2013-01-27 18:45:00,36.0,35.0,30.05,SSE,155,3.0,7.0,96,0.00,,,0.11,Wunderground v.1.15,2013-01-28 00:45:00,
2013-01-27 18:50:00,36.1,35.1,30.05,SSE,162,3.0,9.0,96,0.00,,,0.11,Wunderground v.1.15,2013-01-28 00:50:00,
2013-01-27 19:00:00,36.2,35.2,30.04,SW,218,2.0,2.0,96,0.00,,,0.11,Wunderground v.1.15,2013-01-28 01:00:00,
2013-01-27 19:10:00,36.3,35.3,30.04,SSW,200,3.0,3.0,96,0.00,,,0.11,Wunderground v.1.15,2013-01-28 01:10:00,
2013-01-27 19:20:00,36.4,35.4,30.04,ESE,117,3.0,3.0,96,0.00,,,0.11,Wunderground v.1.15,2013-01-28 01:20:00,
2013-01-27 19:25:00,36.4,35.4,30.04,South,189,3.0,4.0,96,0.00,,,0.11,Wunderground v.1.15,2013-01-28 01:25:00,
2013-01-27 19:35:00,36.4,35.6,30.03,East,91,3.0,3.0,97,0.00,,,0.11,Wunderground v.1.15,2013-01-28 01:35:00,
2013-01-27 19:45:00,36.5,35.7,30.03,SSE,148,3.0,4.0,97,0.00,,,0.11,Wunderground v.1.15,2013-01-28 01:45:00,
2013-01-27 19:55:00,36.7,35.9,30.02,SE,142,4.0,5.0,97,0.00,,,0.11,Wunderground v.1.15,2013-01-28 01:55:00,
2013-01-27 20:00:00,36.7,35.9,30.02,SE,128,3.0,3.0,97,0.00,,,0.11,Wunderground v.1.15,2013-01-28 02:00:00,
2013-01-27 20:10:00,36.7,35.9,30.03,SE,128,2.0,6.0,97,0.00,,,0.11,Wunderground v.1.15,2013-01-28 02:10:00,
2013-01-27 20:15:00,36.8,36.0,30.03,SE,139,3.0,6.0,97,0.00,,,0.12,Wunderground v.1.15,2013-01-28 02:15:00,
2013-01-27 20:25:00,36.9,36.1,30.03,SSE,155,2.0,3.0,97,0.00,,,0.12,Wunderground v.1.15,2013-01-28 02:25:00,
2013-01-27 20:30:00,37.0,36.2,30.03,SE,131,1.0,1.0,97,0.05,,,0.13,Wunderground v.1.15,2013-01-28 02:30:00,
2013-01-27 20:35:00,37.1,36.3,30.03,SSE,163,1.0,1.0,97,0.05,,,0.13,Wunderground v.1.15,2013-01-28 02:35:00,
2013-01-27 20:45:00,37.2,36.4,30.04,ESE,104,0.0,1.0,97,0.04,,,0.14,Wunderground v.1.15,2013-01-28 02:45:00,
2013-01-27 20:50:00,37.3,36.5,30.04,SE,131,0.0,1.0,97,0.04,,,0.14,Wunderground v.1.15,2013-01-28 02:50:00,
2013-01-27 21:00:00,37.4,36.6,30.04,SE,128,1.0,1.0,97,0.00,,,0.14,Wunderground v.1.15,2013-01-28 03:00:00,
2013-01-27 21:10:00,37.6,36.8,30.04,South,172,1.0,1.0,97,0.00,,,0.14,Wunderground v.1.15,2013-01-28 03:10:00,
2013-01-27 21:20:00,37.9,37.1,30.04,SSE,162,1.0,1.0,97,0.00,,,0.14,Wunderground v.1.15,2013-01-28 03:20:00,